CASTLE10 EGKB-EGLW

Flight info

Callsign CASTLE10
Flight time 0h 9m
Altitude 1500
Route
Aircraft A139/L-SBGY/ACEB2

Departure

Time 2026-04-26 15:52
Airport London Biggin Hill Airport (EGKB)

Arrival

Time 2026-04-26 16:01
Airport London Heliport (EGLW)
Time Latitude Longitude Altitude Speed Heading
2026-04-26 15:49 51.32072 0.03543 630 ft 0 kts 64°
2026-04-26 15:50 51.32071 0.03543 629 ft 0 kts 64°
2026-04-26 15:51 51.32071 0.03537 664 ft 9 kts 291°
2026-04-26 15:51 51.32203 0.03310 811 ft 52 kts 318°
2026-04-26 15:52 51.32403 0.02420 896 ft 114 kts 293°
2026-04-26 15:52 51.32494 0.01178 1379 ft 109 kts 265°
2026-04-26 15:52 51.32411 0.00099 1395 ft 104 kts 269°
2026-04-26 15:52 51.32334 -0.00660 1381 ft 102 kts 268°
2026-04-26 15:53 51.32219 -0.02155 1362 ft 101 kts 276°
2026-04-26 15:53 51.32293 -0.03260 1378 ft 100 kts 280°
2026-04-26 15:53 51.32390 -0.04466 1269 ft 126 kts 281°
2026-04-26 15:53 51.32598 -0.05929 1389 ft 138 kts 289°
2026-04-26 15:54 51.32915 -0.07353 1436 ft 137 kts 295°
2026-04-26 15:54 51.33288 -0.08736 1331 ft 136 kts 295°
2026-04-26 15:54 51.33667 -0.10105 1225 ft 130 kts 294°
2026-04-26 15:54 51.34003 -0.11312 1174 ft 112 kts 297°
2026-04-26 15:55 51.34368 -0.12355 981 ft 109 kts 301°
2026-04-26 15:55 51.34701 -0.13399 1015 ft 104 kts 302°
2026-04-26 15:55 51.35046 -0.14423 1004 ft 105 kts 302°
2026-04-26 15:55 51.35387 -0.15430 1019 ft 104 kts 302°
2026-04-26 15:56 51.35763 -0.16420 1024 ft 104 kts 306°
2026-04-26 15:56 51.36127 -0.17357 1021 ft 105 kts 306°
2026-04-26 15:56 51.36508 -0.18333 1024 ft 105 kts 307°
2026-04-26 15:56 51.37053 -0.19075 1004 ft 103 kts 339°
2026-04-26 15:57 51.37715 -0.19266 1096 ft 89 kts 357°
2026-04-26 15:57 51.38283 -0.19376 1051 ft 79 kts 359°
2026-04-26 15:57 51.38829 -0.19426 1002 ft 78 kts
2026-04-26 15:57 51.39192 -0.19479 992 ft 79 kts
2026-04-26 15:58 51.39897 -0.19543 1014 ft 77 kts
2026-04-26 15:58 51.40440 -0.19603 1018 ft 79 kts
2026-04-26 15:58 51.40981 -0.19637 1034 ft 77 kts
2026-04-26 15:58 51.41520 -0.19661 1030 ft 78 kts
2026-04-26 15:59 51.42066 -0.19686 1030 ft 78 kts
2026-04-26 15:59 51.42608 -0.19715 1030 ft 79 kts
2026-04-26 15:59 51.43147 -0.19742 1039 ft 77 kts
2026-04-26 15:59 51.43681 -0.19732 1032 ft 77 kts
2026-04-26 16:00 51.44216 -0.19679 1027 ft 77 kts
2026-04-26 16:00 51.44755 -0.19629 1023 ft 78 kts
2026-04-26 16:00 51.45263 -0.19575 948 ft 68 kts
2026-04-26 16:00 51.45703 -0.19523 802 ft 59 kts
2026-04-26 16:01 51.46083 -0.19357 659 ft 57 kts 26°
2026-04-26 16:01 51.46393 -0.18993 552 ft 56 kts 50°
2026-04-26 16:01 51.46666 -0.18573 438 ft 53 kts 41°
2026-04-26 16:01 51.46846 -0.18151 236 ft 37 kts 21°
2026-04-26 16:02 51.46941 -0.18024 113 ft 11 kts 20°
2026-04-26 16:02 51.46961 -0.17996 82 ft 4 kts 25°
2026-04-26 16:02 51.46981 -0.17968 76 ft 3 kts 32°
2026-04-26 16:02 51.46991 -0.17966 73 ft 2 kts 56°
2026-04-26 16:03 51.46991 -0.17963 69 ft 0 kts 65°
2026-04-26 16:03 51.46990 -0.17945 69 ft 3 kts 107°
2026-04-26 16:03 51.46983 -0.17901 68 ft 4 kts 100°
2026-04-26 16:03 51.46981 -0.17885 68 ft 0 kts 98°